When you browse on this site, cookies collect data to enhance your experience and personalize the content and advertising you see.
Visit our Privacy Policy to learn more. By continuing to use the site, you agree to this use of cookies and data.
  • In Österreich
  • Länderverzeichnis
  • Für 7 Tage
  • Wassertemperatur
  • Satellitenkarten
  • Wetterkarte
  • News
  • Widgets
  • user-avatar
    Anmelden

    Stündliche Wetter Rio Piedras

    Heute, 23 Juli, Dienstag

    Zeit Temperatur Niederschläge Wind Luftdruck Luftfeuchtigkeit
    00:00 +27°C° 0.1 mm 3 m/S 758 mmHg 89%
    01:00 +27°C° 0.1 mm 3 m/S 758 mmHg 89%
    02:00 +27°C° 0.1 mm 3 m/S 758 mmHg 90%
    03:00 +27°C° 0.1 mm 3 m/S 758 mmHg 89%
    04:00 +27°C° 0.1 mm 3 m/S 757 mmHg 89%
    05:00 +27°C° 0.1 mm 3 m/S 757 mmHg 89%
    06:00 +28°C° 0.1 mm 4 m/S 758 mmHg 86%
    07:00 +29°C° 0.1 mm 4 m/S 758 mmHg 83%
    08:00 +30°C° 0.1 mm 5 m/S 759 mmHg 80%
    09:00 +32°C° 0.2 mm 5 m/S 759 mmHg 76%
    10:00 +33°C° 0.2 mm 5 m/S 759 mmHg 73%
    11:00 +33°C° 0.2 mm 6 m/S 759 mmHg 69%
    12:00 +33°C° 0.2 mm 6 m/S 759 mmHg 68%
    13:00 +34°C° 0.2 mm 6 m/S 758 mmHg 68%
    14:00 +34°C° 0.2 mm 6 m/S 758 mmHg 68%
    15:00 +33°C° 0 mm 6 m/S 758 mmHg 69%
    16:00 +33°C° 0 mm 6 m/S 758 mmHg 70%
    17:00 +32°C° 0 mm 6 m/S 758 mmHg 71%
    18:00 +30°C° 0 mm 5 m/S 758 mmHg 76%
    19:00 +29°C° 0 mm 4 m/S 758 mmHg 80%
    20:00 +28°C° 0 mm 4 m/S 758 mmHg 84%
    21:00 +28°C° 0 mm 4 m/S 759 mmHg 86%
    22:00 +28°C° 0 mm 4 m/S 759 mmHg 87%
    23:00 +28°C° 0 mm 4 m/S 760 mmHg 88%

    Morgen, 24 Juli, Mittwoch

    Zeit Temperatur Niederschläge Wind Luftdruck Luftfeuchtigkeit
    00:00 +27°C° 0.1 mm 3 m/S 759 mmHg 89%
    01:00 +27°C° 0.1 mm 3 m/S 759 mmHg 89%
    02:00 +27°C° 0.1 mm 3 m/S 759 mmHg 90%
    03:00 +27°C° 0.1 mm 3 m/S 758 mmHg 90%
    04:00 +27°C° 0.1 mm 3 m/S 758 mmHg 90%
    05:00 +27°C° 0.1 mm 3 m/S 758 mmHg 90%
    06:00 +28°C° 0 mm 3 m/S 758 mmHg 87%
    07:00 +28°C° 0 mm 4 m/S 759 mmHg 84%
    08:00 +29°C° 0 mm 4 m/S 759 mmHg 81%
    09:00 +30°C° 0.1 mm 5 m/S 759 mmHg 78%
    10:00 +30°C° 0.1 mm 5 m/S 759 mmHg 75%
    11:00 +32°C° 0.1 mm 6 m/S 759 mmHg 73%
    12:00 +32°C° 0 mm 6 m/S 759 mmHg 69%
    13:00 +33°C° 0 mm 6 m/S 759 mmHg 66%
    14:00 +33°C° 0 mm 6 m/S 758 mmHg 62%
    15:00 +33°C° 0 mm 6 m/S 758 mmHg 64%
    16:00 +32°C° 0 mm 6 m/S 758 mmHg 66%
    17:00 +32°C° 0 mm 5 m/S 758 mmHg 67%
    18:00 +30°C° 0 mm 5 m/S 758 mmHg 73%
    19:00 +29°C° 0 mm 5 m/S 758 mmHg 79%
    20:00 +28°C° 0 mm 4 m/S 758 mmHg 85%
    21:00 +28°C° 0 mm 4 m/S 758 mmHg 85%
    22:00 +28°C° 0 mm 4 m/S 759 mmHg 85%
    23:00 +27°C° 0 mm 4 m/S 759 mmHg 85%

    übermorgen, 25 Juli, Donnerstag

    Zeit Temperatur Niederschläge Wind Luftdruck Luftfeuchtigkeit
    00:00 +27°C° 0 mm 4 m/S 758 mmHg 85%
    01:00 +27°C° 0 mm 4 m/S 758 mmHg 85%
    02:00 +27°C° 0 mm 4 m/S 757 mmHg 85%
    03:00 +27°C° 0.2 mm 4 m/S 757 mmHg 86%
    04:00 +27°C° 0.2 mm 4 m/S 757 mmHg 87%
    05:00 +27°C° 0.2 mm 4 m/S 757 mmHg 87%
    06:00 +28°C° 0.4 mm 5 m/S 758 mmHg 84%
    07:00 +28°C° 0.4 mm 5 m/S 758 mmHg 81%
    08:00 +29°C° 0.4 mm 6 m/S 758 mmHg 77%
    09:00 +30°C° 0.3 mm 6 m/S 758 mmHg 74%
    10:00 +32°C° 0.3 mm 6 m/S 759 mmHg 71%
    11:00 +32°C° 0.3 mm 7 m/S 759 mmHg 68%
    12:00 +32°C° 0.4 mm 7 m/S 759 mmHg 68%
    13:00 +32°C° 0.4 mm 7 m/S 758 mmHg 69%
    14:00 +32°C° 0.4 mm 7 m/S 758 mmHg 69%
    15:00 +32°C° 0.2 mm 6 m/S 758 mmHg 69%
    16:00 +32°C° 0.2 mm 6 m/S 757 mmHg 69%
    17:00 +32°C° 0.2 mm 6 m/S 757 mmHg 70%
    18:00 +30°C° 0.1 mm 5 m/S 757 mmHg 74%
    19:00 +29°C° 0.1 mm 5 m/S 758 mmHg 79%
    20:00 +28°C° 0.1 mm 4 m/S 758 mmHg 84%
    21:00 +28°C° 0.3 mm 4 m/S 758 mmHg 85%
    22:00 +28°C° 0.3 mm 4 m/S 759 mmHg 87%
    23:00 +27°C° 0.3 mm 4 m/S 759 mmHg 88%

    26 Juli, Freitag

    Zeit Temperatur Niederschläge Wind Luftdruck Luftfeuchtigkeit
    00:00 +27°C° 0.1 mm 4 m/S 759 mmHg 88%
    01:00 +27°C° 0.1 mm 4 m/S 758 mmHg 88%
    02:00 +27°C° 0.1 mm 4 m/S 758 mmHg 88%
    03:00 +27°C° 0.1 mm 4 m/S 758 mmHg 88%
    04:00 +27°C° 0.1 mm 4 m/S 758 mmHg 88%
    05:00 +27°C° 0.1 mm 5 m/S 758 mmHg 88%
    06:00 +28°C° 0 mm 5 m/S 758 mmHg 85%
    07:00 +29°C° 0 mm 5 m/S 759 mmHg 81%
    08:00 +30°C° 0 mm 5 m/S 759 mmHg 77%
    09:00 +32°C° 0 mm 6 m/S 759 mmHg 73%
    10:00 +32°C° 0 mm 6 m/S 760 mmHg 69%
    11:00 +33°C° 0 mm 6 m/S 760 mmHg 65%
    12:00 +34°C° 0 mm 7 m/S 760 mmHg 65%
    13:00 +34°C° 0 mm 7 m/S 759 mmHg 64%
    14:00 +34°C° 0 mm 7 m/S 759 mmHg 64%
    15:00 +33°C° 0 mm 6 m/S 759 mmHg 65%
    16:00 +33°C° 0 mm 6 m/S 758 mmHg 67%
    17:00 +33°C° 0 mm 6 m/S 758 mmHg 68%
    18:00 +32°C° 0 mm 5 m/S 758 mmHg 73%
    19:00 +30°C° 0 mm 5 m/S 759 mmHg 79%
    20:00 +29°C° 0 mm 4 m/S 759 mmHg 84%
    21:00 +28°C° 0 mm 4 m/S 759 mmHg 85%
    22:00 +28°C° 0 mm 4 m/S 760 mmHg 86%
    23:00 +28°C° 0 mm 4 m/S 760 mmHg 87%

    27 Juli, Samstag

    Zeit Temperatur Niederschläge Wind Luftdruck Luftfeuchtigkeit
    00:00 +28°C° 0.1 mm 4 m/S 760 mmHg 88%
    01:00 +28°C° 0.1 mm 4 m/S 759 mmHg 89%
    02:00 +28°C° 0.1 mm 4 m/S 759 mmHg 89%
    03:00 +28°C° 0 mm 4 m/S 759 mmHg 89%
    04:00 +28°C° 0 mm 4 m/S 759 mmHg 89%
    05:00 +28°C° 0 mm 4 m/S 759 mmHg 89%
    06:00 +28°C° 0.1 mm 4 m/S 759 mmHg 87%
    07:00 +29°C° 0.1 mm 4 m/S 759 mmHg 85%
    08:00 +30°C° 0.1 mm 5 m/S 760 mmHg 83%
    09:00 +32°C° 0 mm 5 m/S 760 mmHg 77%
    10:00 +33°C° 0 mm 5 m/S 760 mmHg 71%
    11:00 +34°C° 0 mm 5 m/S 760 mmHg 65%
    12:00 +34°C° 0 mm 5 m/S 760 mmHg 64%
    13:00 +34°C° 0 mm 6 m/S 759 mmHg 64%
    14:00 +34°C° 0 mm 6 m/S 759 mmHg 64%
    15:00 +33°C° 0 mm 5 m/S 759 mmHg 66%
    16:00 +33°C° 0 mm 5 m/S 758 mmHg 68%
    17:00 +32°C° 0 mm 5 m/S 758 mmHg 70%
    18:00 +30°C° 0.3 mm 4 m/S 758 mmHg 76%
    19:00 +29°C° 0.3 mm 4 m/S 758 mmHg 82%
    20:00 +28°C° 0.3 mm 4 m/S 759 mmHg 88%
    21:00 +28°C° 0.2 mm 4 m/S 759 mmHg 89%
    22:00 +28°C° 0.2 mm 4 m/S 759 mmHg 89%
    23:00 +28°C° 0.2 mm 3 m/S 759 mmHg 89%

    28 Juli, Sonntag

    Zeit Temperatur Niederschläge Wind Luftdruck Luftfeuchtigkeit
    00:00 +28°C° 0 mm 3 m/S 759 mmHg 90%
    01:00 +27°C° 0 mm 3 m/S 758 mmHg 90%
    02:00 +27°C° 0 mm 3 m/S 758 mmHg 90%
    03:00 +27°C° 0.3 mm 3 m/S 758 mmHg 90%
    04:00 +27°C° 0.3 mm 3 m/S 758 mmHg 90%
    05:00 +27°C° 0.3 mm 3 m/S 758 mmHg 90%
    06:00 +28°C° 0.2 mm 3 m/S 758 mmHg 87%
    07:00 +28°C° 0.2 mm 3 m/S 758 mmHg 84%
    08:00 +29°C° 0.2 mm 3 m/S 758 mmHg 81%
    09:00 +30°C° 0.1 mm 4 m/S 759 mmHg 77%
    10:00 +32°C° 0.1 mm 4 m/S 759 mmHg 73%
    11:00 +33°C° 0.1 mm 4 m/S 759 mmHg 68%
    12:00 +33°C° 0.1 mm 5 m/S 758 mmHg 66%
    13:00 +33°C° 0.1 mm 5 m/S 758 mmHg 64%
    14:00 +34°C° 0.1 mm 5 m/S 758 mmHg 62%
    15:00 +33°C° 0.1 mm 5 m/S 757 mmHg 66%
    16:00 +32°C° 0.1 mm 5 m/S 757 mmHg 69%
    17:00 +32°C° 0.1 mm 5 m/S 757 mmHg 72%
    18:00 +30°C° 0 mm 5 m/S 757 mmHg 76%
    19:00 +29°C° 0 mm 4 m/S 757 mmHg 80%
    20:00 +28°C° 0 mm 3 m/S 758 mmHg 85%
    21:00 +28°C° 0 mm 3 m/S 758 mmHg 85%
    22:00 +27°C° 0 mm 3 m/S 758 mmHg 86%
    23:00 +27°C° 0 mm 3 m/S 758 mmHg 86%
    Mehr zeigen